Location: *
(41.8994°S, 92.3050°E)
Time: 05:16:35
(UTC+00:00)

Daily predictions for brighter satellites

Satellite Brightness Start Highest point End
(mag) Time Altitude Azimuth Time Altitude Azimuth Time Altitude Azimuth
PSLV R/B 4.2 00:00:05 10° S 00:04:07 47° WSW 00:08:03 10° NW
STARLINK-1098 4.4 00:02:44 16° W 00:05:32 35° SSW 00:09:26 10° SE
Cosmos 1933 4.1 00:03:46 10° NW 00:07:21 30° WSW 00:11:00 10° SSW
Meteor 1-20 Rocket 4.4 00:02:03 10° SSW 00:07:52 61° W 00:13:32 10° N
STARLINK-1174 3.6 00:05:37 15° SW 00:09:03 79° NW 00:13:15 10° NE
STARLINK-1123 4.5 00:07:32 15° W 00:10:34 33° SSW 00:14:25 10° SE
FengYun 1-2 T 4.2 00:05:09 10° N 00:10:39 68° WNW 00:16:14 10° SSW
Okean O Rocket 3.2 00:08:13 10° NW 00:10:56 16° W 00:12:42 13° WSW
Cosmos 1151 Rocket 4.0 00:08:35 10° NW 00:12:16 26° WSW 00:15:59 10° SSW
Cosmos 1238 Rocket 3.9 00:12:21 15° WSW 00:13:13 16° W 00:15:22 10° NW
Cosmos 1459 Rocket 4.1 00:07:00 10° SSW 00:13:20 59° W 00:19:34 10° N
STARLINK-1149 3.7 00:10:22 14° WSW 00:14:00 73° NW 00:18:10 10° NE
SMAP 4.1 00:11:21 10° NNW 00:15:14 25° W 00:19:10 10° SW
SL-8 R/B 3.8 00:13:46 10° WNW 00:18:38 86° NNE 00:23:30 10° ESE
STARLINK-1180 3.8 00:15:11 12° WSW 00:19:01 66° NW 00:23:09 10° NE
STARLINK-1153 3.9 00:19:58 11° WSW 00:23:58 60° NW 00:28:06 10° NE
BREEZE-M DEB (TANK) 3.9 00:22:51 10° SW 00:25:49 61° SSE 00:35:10 10° ENE
Hubble Space Telescope 3.5 00:24:51 10° NNW 00:26:25 12° N 00:27:58 10° NNE
Abrixas rocket 1.8 00:24:58 10° WNW 00:27:56 73° SSW 00:30:55 10° ESE
STARLINK-1132 4.0 00:24:48 10° WSW 00:28:56 54° NW 00:33:01 10° NE
STARLINK-1177 4.1 00:29:49 10° WSW 00:33:54 49° NW 00:37:57 10° NNE
STARLINK-1190 4.4 00:32:02 10° SW 00:36:07 45° SSE 00:40:11 10° ENE
CSL-04 Rocket 3.9 00:30:58 10° NNE 00:36:20 77° ESE 00:41:42 10° S
COSMO-SKYMED 1 3.1 00:34:11 10° S 00:38:19 39° WSW 00:42:23 10° NW
Cosmos 1802 Rocket 4.4 00:32:45 10° SSW 00:38:43 45° W 00:44:33 10° NNW
STARLINK-1167 4.2 00:34:47 10° WSW 00:38:50 45° NW 00:42:49 10° NNE
STARLINK-1129 4.3 00:37:02 10° SW 00:41:09 49° SSE 00:45:13 10° ENE
Meteor 2-6 Rocket 4.2 00:35:53 10° N 00:41:28 82° W 00:47:01 10° S
Cosmos 1725 Rocket 4.1 00:35:38 10° SSW 00:41:57 63° W 00:48:11 10° N
Cosmos 1782 2.8 10:55:44 10° S 10:59:49 79° E 11:03:50 10° N
Cosmos 1862 4.0 10:56:23 10° NNE 11:00:05 36° E 11:03:51 10° SSE
ALOS 2.4 10:56:00 10° SSE 11:00:47 84° WSW 11:05:29 10° NNW
Iridium 96 3.6 11:01:20 10° SSE 11:02:53 27° E 11:04:25 10° NNE
Iridium 4 Rocket 4.1 10:57:35 10° N 11:03:02 65° W 11:08:05 10° S
Cosmos 1500 Rocket 3.7 10:59:01 10° N 11:03:25 80° W 11:07:51 10° S
SL-4 R/B 1.8 11:00:35 10° SW 11:04:16 65° SSE 11:08:11 10° ENE
Cosmos 1680 Rocket 3.8 11:02:40 10° N 11:07:46 50° ENE 11:12:53 10° SSE
STARLINK-1302 3.9 11:04:00 10° WNW 11:08:10 67° SW 11:12:24 10° SE
ATLAS 2AS CENTAUR R/B 4.2 11:06:04 10° S 11:09:33 15° SSE 11:13:09 10° ESE
Cosmos 2219 Rocket 2.2 11:04:37 10° NNW 11:10:17 78° ENE 11:16:03 10° SSE
Cosmos 923 Rocket 4.1 11:05:18 10° N 11:10:38 71° ENE 11:16:02 10° SSE
Meteor 2-20 4.5 11:05:01 10° S 11:11:16 68° E 11:17:24 10° NNE
Cosmos 1844 4.0 11:06:52 10° SSW 11:12:29 74° WNW 11:18:02 10° NNE
STARLINK-60 3.0 11:09:54 10° SW 11:13:10 62° SE 11:16:23 10° ENE
STARLINK-1273 4.0 11:09:01 10° WNW 11:13:10 61° SSW 11:17:22 10° SE
Cosmos 1805 Rocket 3.6 11:09:28 10° N 11:13:46 61° E 11:18:11 10° SSE
STARLINK-81 4.2 11:10:43 10° NNW 11:14:19 37° NE 11:17:38 12° ESE
Cosmos 1812 3.4 11:11:34 10° SSE 11:15:08 32° ESE 11:18:38 10° NE
STARLINK-54 4.1 11:11:55 10° NNW 11:15:35 43° NE 11:18:55 12° ESE
CZ-4B DEB 4.3 11:11:20 10° SSE 11:16:49 59° ENE 11:22:15 10° N
STARLINK-77 4.2 11:13:26 10° NNW 11:17:04 40° NE 11:20:16 13° ESE
STARLINK-1288 4.1 11:14:00 10° WNW 11:18:07 57° SSW 11:22:08 11° SE
STARLINK-1014 4.5 11:16:40 10° NNW 11:20:33 37° NE 11:23:50 14° ESE
Cosmos 1238 Rocket 4.0 11:16:51 10° NE 11:20:34 25° E 11:23:48 10° SE
Meteor 2-6 Rocket 4.1 11:15:50 10° S 11:21:22 76° E 11:26:56 10° NNE
STARLINK-79 4.0 11:18:11 10° NNW 11:21:52 44° NE 11:24:54 14° ESE
Cosmos 1461 3.7 11:18:55 10° S 11:22:19 26° SE 11:25:40 10° ENE
STARLINK-1308 4.2 11:19:04 10° WNW 11:23:10 52° SSW 11:26:58 12° SE
STARLINK-78 3.9 11:19:38 10° NNW 11:23:19 46° NE 11:26:18 15° ESE
PAYLOAD B 4.3 11:19:10 10° SSE 11:24:41 58° ENE 11:30:07 10° N
STARLINK-57 3.8 11:21:19 10° NNW 11:25:03 50° NE 11:28:00 16° ESE
STARLINK-1010 4.2 11:21:07 10° NNW 11:25:12 44° NE 11:28:28 15° ESE
Lacrosse 5 rocket 3.3 11:22:51 10° NNE 11:25:27 16° ENE 11:27:19 13° E
STARLINK-1025 4.3 11:21:34 10° NNW 11:25:30 40° NE 11:28:35 15° ESE
Cosmos 1633 4.1 11:22:23 10° NNW 11:25:49 38° WSW 11:29:16 10° S
Cosmos 1980 4.2 11:20:39 10° N 11:25:51 39° ENE 11:31:08 10° SE
STARLINK-61 3.8 11:22:35 10° WNW 11:26:32 65° SW 11:29:54 14° SE
STARLINK-49 3.8 11:22:55 10° NNW 11:26:38 49° NE 11:29:30 16° ESE
Envisat 4.0 11:23:32 10° SE 11:27:53 27° E 11:32:11 10° NNE
STARLINK-27 3.8 11:24:18 10° NNW 11:28:01 50° NE 11:30:49 17° ESE
STARLINK-74 3.7 11:25:59 10° NW 11:29:43 52° NE 11:32:26 17° ESE
STARLINK-1017 4.2 11:26:25 10° NNW 11:30:25 45° NE 11:33:20 17° ESE
STARLINK-39 3.7 11:27:29 10° NW 11:31:14 54° NE 11:33:54 18° ESE
STARLINK-31 3.6 11:29:04 10° NW 11:32:49 56° NE 11:35:26 19° ESE
STARLINK-1304 4.4 11:29:06 10° WNW 11:33:08 45° SSW 11:36:30 14° SE
COSMO-SKYMED 1 3.7 11:28:57 10° N 11:33:11 48° W 11:37:28 10° SSW
STARLINK-69 3.5 11:30:45 10° NW 11:34:31 64° NE 11:37:06 19° ESE
STARLINK-1023 4.0 11:31:19 10° NNW 11:35:21 49° NE 11:38:05 19° ESE
STARLINK-21 3.5 11:32:16 10° NW 11:36:01 61° NE 11:38:31 20° ESE
STARLINK-45 3.4 11:34:01 10° NW 11:37:49 70° NE 11:40:17 21° ESE
Cosmos 1707 Rocket 3.6 11:34:20 10° S 11:38:47 60° E 11:43:08 10° NNE
STARLINK-70 3.4 11:35:41 10° NW 11:39:29 70° NE 11:41:53 22° ESE
STARLINK-1007 3.9 11:36:17 10° NW 11:40:22 54° NE 11:42:56 21° ESE
STARLINK-76 3.4 11:37:09 10° NW 11:40:55 68° NE 11:43:14 22° ESE
NOSS 0 Rocket 4.0 11:34:51 10° N 11:41:01 65° ENE 11:47:15 10° SSE
STARLINK-29 3.1 11:38:46 10° SW 11:42:03 54° SSE 11:44:00 21° ENE
COSMOS 2428 3.1 11:36:36 10° NW 11:42:18 66° WSW 11:48:06 10° SSE
STARLINK-23 3.4 11:38:47 10° NW 11:42:35 70° NE 11:44:50 23° ESE
Cosmos 405 3.1 11:39:58 10° SSW 11:43:34 78° W 11:47:05 10° N
Meteor 1-27 Rocket 3.8 11:38:03 10° S 11:43:56 62° ESE 11:49:50 10° NNE
STARLINK-32 3.4 11:40:21 10° NW 11:44:09 73° NE 11:46:20 24° ESE
STARLINK-71 3.5 11:40:21 10° NW 11:44:25 78° NE 11:46:54 23° ESE
USA 116 4.5 11:40:00 10° N 11:44:46 80° WNW 11:50:04 10° SSW
STARLINK-1048 3.8 11:41:12 10° NW 11:45:19 60° NE 11:47:42 24° ESE
ATLAS 5 CENTAUR R/B 2.9 11:39:06 10° N 11:46:02 51° ENE 11:51:06 17° SE
STARLINK-40 3.4 11:42:19 10° NW 11:46:09 76° NE 11:48:17 25° ESE
Cosmos 1624 Rocket 4.1 11:41:09 10° S 11:46:20 53° ESE 11:51:28 10° NE
STARLINK-44 3.3 11:43:35 10° NW 11:47:23 78° NE 11:49:28 26° ESE
STARLINK-37 3.3 11:45:42 10° NW 11:49:33 87° NE 11:51:36 26° SE
Cosmos 2173 Rocket 4.4 11:44:00 10° NNE 11:49:48 41° E 11:55:35 10° SSE
STARLINK-1049 3.7 11:46:08 10° NW 11:50:16 66° NE 11:52:28 27° ESE
H-2A R/B 2.7 11:46:42 10° SSE 11:50:38 76° ENE 11:54:31 10° N
STARLINK-36 3.3 11:46:51 10° NW 11:50:39 83° NE 11:52:36 28° SE
STARLINK-68 3.3 11:48:43 10° NW 11:52:32 87° SW 11:54:27 28° SE
Cosmos 1862 Rocket 4.0 11:48:29 10° S 11:52:48 40° ESE 11:57:03 10° NNE
Cosmos 2237 Rocket 2.2 11:48:13 10° N 11:53:48 62° ENE 11:58:30 15° SSE
STARLINK-63 3.3 11:50:26 10° NW 11:54:16 88° SW 11:56:06 30° SE
STARLINK-1051 3.6 11:51:06 10° NW 11:55:16 72° NE 11:57:16 30° ESE
STARLINK-35 3.3 11:51:48 10° NW 11:55:38 89° SSW 11:57:23 31° SE
